RH
86 99 100 100 96 91 91 79 82 92 93 85 73 71 64 61 72 87 91 91 85 86 94 97 97 97 95 98 98 89 87 85 83 82 80 79 77 76
98 100 100 100 100 99 99 91 92 89 94 83 91 93 91 92 95 97 94 92 99 99 98 98 98 100 99 99 90 83 83 83 82 79 78 76 74 73
97 100 100 100 100 99 100 97 92 95 98 100 94 96 98 96 97 99 97 100 98 92 97 100 100 100 93 81 81 82 83 81 80 78 77 75 74 72
100 100 99 100 99 98 97 96 98 100 100 100 100 99 100 100 100 100 100 93 87 88 98 99 89 77 76 80 78 73 76 80 81 81 80 77 75 73
99 100 100 99 94 91 92 96 99 100 99 97 100 100 100 98 96 92 91 99 99 87 85 77 72 69 67 69 73 76 80 82 81 81 80 77 78 77
96 94 94 93 90 90 94 97 98 97 97 97 100 100 100 100 100 100 93 77 68 66 66 60 67 67 72 72 75 77 79 78 78 77 77 78 78 77
98 98 98 96 97 99 98 99 98 97 95 96 97 97 96 94 90 76 78 69 62 64 60 57 62 60 60 57 60 64 73 78 78 78 78 77 76 73
100 100 99 98 100 100 99 99 97 94 94 93 90 84 79 74 72 71 70 71 71 65 67 65 57 59 59 62 59 80 79 78 80 81 81 80 78 76
97 98 97 98 96 89 84 79 81 88 90 85 84 78 70 70 69 69 70 70 72 70 76 72 65 68 60 58 59 70 84 83 87 88 88 86 83 82
74 72 70 62 68 68 67 68 67 66 66 67 69 71 74 76 78 76 76 78 79 74 65 87 75 69 60 57 59 62 64 80 83 83 86 87 85 81
52 64 60 62 78 81 78 80 81 76 83 82 78 74 71 74 82 81 84 86 86 82 78 84 81 80 69 62 60 57 64 71 85 90 93 91 90 87
54 55 69 82 86 89 87 86 80 76 73 70 65 64 66 64 64 66 67 75 78 86 88 89 90 91 85 76 71 74 72 73 88 92 96 97 96 94
66 67 73 87 87 83 81 80 73 76 79 73 71 67 56 63 69 71 74 79 81 81 82 88 98 92 96 89 84 90 87 80 86 83 81 86 95 97
72 74 76 84 77 72 70 72 74 78 75 64 62 68 75 82 85 91 92 94 99 99 98 98 98 95 95 95 93 84 88 85 85 83 80 74 81 88
79 85 84 74 68 56 52 67 72 56 68 71 74 78 83 86 88 89 95 96 97 98 97 99 97 96 96 97 96 96 94 85 84 80 79 85 83 82
71 73 60 60 52 54 58 60 67 70 78 80 80 88 90 96 98 96 95 92 95 92 92 96 97 96 99 100 100 99 95 97 88 95 92 93 91 93
81 58 49 50 58 61 66 72 75 78 83 91 93 94 98 98 97 95 93 92 99 98 96 94 91 92 98 99 100 97 97 98 98 93 98 100 99 96
77 63 60 65 69 73 79 84 86 88 89 94 94 97 97 94 93 93 90 94 96 97 96 93 94 97 98 96 100 100 100 100 98 97 96 100 97 90
63 61 60 65 72 77 83 88 87 94 96 97 99 96 96 95 96 94 97 99 98 98 95 92 94 100 94 91 76 75 79 83 89 93 95 99 99 93
63 66 68 69 71 74 79 85 86 94 96 98 95 95 94 94 99 98 97 100 100 98 100 97 99 100 96 91 92 87 88 91 95 98 97 96 96 97
73 70 70 72 72 74 76 80 87 89 92 94 94 97 98 97 99 100 100 97 95 98 96 94 90 91 94 98 95 85 81 80 82 91 92 96 94 90
69 69 70 72 75 79 80 82 84 88 96 95 97 96 97 97 99 100 100 100 98 98 98 98 96 98 100 99 90 87 85 84 85 85 86 90 96 93
67 71 75 77 76 76 79 80 82 84 86 87 89 86 90 96 96 100 100 100 99 98 98 98 97 98 98 97 91 91 89 88 86 87 86 90 84 81
Wind_Speed
29 26 27 28 33 33 33 30 21 8 8 15 12 21 23 27 30 29 28 26 28 26 22 17 17 22 19 19 18 17 16 16 17 17 18 18 19 19
22 25 21 24 22 22 20 16 15 15 4 13 15 13 20 22 23 24 24 25 24 18 16 17 22 23 21 18 18 18 18 17 17 18 18 18 18 19
17 13 11 10 11 11 10 12 10 11 2 4 10 13 19 22 22 25 24 24 22 21 21 24 23 20 17 17 17 18 17 17 17 18 17 17 18 18
7 7 6 6 4 4 4 3 2 5 5 5 9 11 15 19 24 22 17 16 21 21 21 17 16 16 17 17 16 16 16 16 16 17 17 17 18 19
3 4 3 2 3 2 2 3 5 3 5 6 5 9 8 10 14 15 13 17 15 13 12 14 14 13 15 17 16 14 14 14 15 17 17 17 18 19
6 6 5 4 5 6 7 7 7 6 6 9 5 6 4 6 11 10 8 9 10 8 10 14 14 15 14 13 12 14 14 14 15 16 16 17 18 19
14 15 14 10 7 5 6 8 7 7 7 5 5 2 3 4 7 4 8 7 8 9 12 12 8 12 13 16 15 14 13 13 14 16 17 19 20 21
14 13 13 12 12 9 10 8 7 5 4 2 3 3 4 4 5 6 6 4 2 4 6 18 17 16 10 11 11 11 13 14 16 17 18 19 21 22
11 9 9 8 7 7 6 4 4 3 2 0 2 1 1 1 2 3 5 6 6 11 13 15 15 16 10 13 13 13 14 14 15 14 16 17 19 20
12 11 9 8 7 6 5 5 5 3 2 2 3 3 3 4 5 7 7 8 12 16 12 6 8 16 14 18 14 8 5 8 10 14 18 19 21 22
8 8 6 6 6 6 5 4 3 2 2 2 3 5 7 8 7 9 9 10 8 4 11 9 6 14 19 6 1 2 7 11 17 17 17 19 20 22
5 6 6 7 5 5 7 5 4 3 5 9 10 8 8 8 7 8 9 9 8 6 0 6 4 8 9 6 5 15 19 20 15 19 20 19 18 20
4 4 2 5 6 7 7 8 6 7 10 9 7 7 6 5 4 5 6 7 10 12 11 11 6 11 5 11 20 20 20 23 29 26 23 18 15 14
5 6 8 8 8 8 8 6 6 7 8 5 5 6 6 5 7 8 9 12 14 17 19 17 13 14 15 17 15 20 26 31 23 29 24 20 22 21
5 7 8 9 10 9 7 7 7 6 4 5 6 7 8 10 12 13 12 13 15 15 16 16 19 21 21 20 22 26 22 25 31 17 24 28 29 29
9 12 9 8 7 8 7 6 5 5 6 7 8 9 12 10 10 11 14 15 18 18 15 16 18 19 25 24 24 29 26 15 28 30 31 32 32 31
11 11 9 7 8 8 6 6 6 5 6 7 9 9 9 12 13 13 15 16 16 18 19 18 19 19 23 27 26 29 30 29 28 32 31 29 28 29
10 9 9 9 9 9 9 10 10 8 7 9 11 13 14 15 16 16 16 16 17 17 19 20 20 21 22 24 27 32 27 28 31 31 30 27 27 30
9 8 10 12 11 11 11 11 11 10 11 13 13 15 15 16 16 19 18 17 18 19 22 22 21 17 9 11 23 22 30 26 27 28 28 28 29 32
9 12 13 13 13 13 13 13 13 14 15 15 17 17 17 18 18 18 20 20 20 22 24 23 22 21 18 14 21 32 29 30 28 29 30 30 33 33
14 15 14 14 15 16 16 17 16 17 17 17 17 18 18 18 19 21 22 22 23 21 21 24 26 22 25 27 21 29 30 28 29 32 31 28 29 29
16 16 16 17 17 18 18 19 20 20 21 21 23 24 23 20 21 23 23 23 23 23 26 29 30 27 24 22 24 29 32 33 32 35 36 37 34 10
16 17 18 19 20 20 21 21 21 23 24 26 27 27 27 26 25 24 26 25 25 26 25 27 25 23 25 25 29 29 32 34 31 32 33 30 33 39
Wind_Direction
284 273 259 245 242 242 242 225 224 231 223 209 192 198 199 203 209 229 235 236 231 238 236 229 241 262 270 275 274 271 274 277 282 283 280 279 280 278
289 281 261 246 240 237 246 234 233 254 230 199 205 200 212 225 226 226 220 223 235 233 232 247 254 264 269 269 271 274 276 280 281 279 277 278 277 276
278 267 252 246 233 239 247 251 244 258 248 195 212 212 208 206 211 221 227 241 245 242 247 258 266 266 266 267 271 274 277 279 280 279 278 275 274 274
300 266 236 231 232 257 270 271 256 187 218 175 184 199 221 209 226 234 240 246 253 255 258 260 260 263 266 268 271 276 279 280 280 278 278 276 274 274
10 356 337 276 155 136 165 158 157 182 193 189 144 190 209 208 221 234 241 244 253 260 252 252 254 259 268 274 276 279 279 278 277 277 276 274 273 273
62 54 47 49 83 109 128 126 128 133 128 144 117 148 176 204 210 226 245 253 254 248 238 257 272 274 271 274 277 283 280 279 279 276 275 274 274 274
78 76 64 60 66 85 106 105 105 111 108 98 105 138 179 180 213 226 225 234 249 264 276 279 284 275 276 280 279 284 283 281 281 280 277 275 275 275
86 85 88 88 81 68 72 73 72 80 97 127 151 166 173 202 213 209 199 219 285 214 290 296 295 292 292 295 295 289 285 283 284 283 281 279 278 276
82 78 76 69 63 57 57 63 76 67 56 215 196 180 197 174 220 264 262 264 264 289 300 299 308 301 315 307 300 291 287 286 288 287 285 284 282 280
67 61 58 51 39 28 21 17 24 11 334 308 303 265 276 278 288 290 288 290 291 293 294 268 293 301 315 311 302 281 284 296 296 298 297 291 286 283
61 54 48 38 27 19 354 355 317 340 188 283 292 295 296 287 280 280 282 296 312 292 310 265 297 321 315 327 314 247 294 295 305 306 303 297 291 286
39 20 21 14 7 2 343 331 321 293 299 290 290 293 291 279 279 273 280 268 273 301 235 337 304 354 326 298 297 299 304 313 309 308 304 301 294 288
12 356 358 349 340 332 326 316 306 308 300 298 293 297 300 302 300 280 278 277 271 257 259 291 275 310 265 294 307 305 307 310 315 316 317 311 299 290
353 341 323 321 325 325 319 312 302 293 292 296 307 323 325 324 311 300 290 284 278 274 272 272 273 279 278 283 285 294 302 306 308 309 309 311 307 299
342 333 319 317 321 328 327 309 305 307 311 322 323 319 314 307 297 299 303 302 296 288 282 279 276 280 275 267 276 288 302 304 307 298 305 304 308 308
321 325 326 315 313 320 315 324 320 310 310 314 318 317 316 319 321 320 315 314 309 302 298 289 279 276 273 270 272 280 285 279 292 294 300 300 300 298
318 329 336 334 333 331 329 323 318 314 316 319 321 320 316 314 311 314 311 311 297 298 301 299 292 283 274 277 271 270 277 279 278 287 290 284 288 290
308 320 324 328 327 325 321 319 318 317 312 309 308 307 306 308 308 310 310 302 288 289 290 295 294 289 282 273 260 266 270 270 280 285 285 276 283 287
302 307 313 322 319 315 315 313 314 303 303 302 300 303 304 302 302 301 299 291 284 280 280 284 280 272 279 277 273 269 273 280 289 286 280 273 272 278
314 312 310 314 314 312 309 305 301 300 300 299 299 299 299 298 294 286 286 284 281 281 279 279 272 262 259 275 285 284 279 277 277 276 279 281 278 282
314 313 312 308 308 308 305 303 298 294 297 297 295 294 292 291 284 282 282 286 287 285 281 278 276 285 280 284 279 279 283 282 275 272 277 279 283 288
305 304 306 305 305 305 303 302 301 296 291 287 285 288 288 283 282 281 279 278 278 276 276 280 286 286 276 262 270 278 286 287 283 280 276 268 269 275
303 303 304 305 306 305 303 302 300 297 295 293 292 291 290 284 280 275 274 274 274 277 278 281 283 280 271 266 271 277 278 282 283 285 281 269 272 272